PAMB Airport (Manokotak) Information

FAA: MBA - ICAO: PAMB

PAMB Airport Location

State Alaska
County Dillingham
City Manokotak
PAMB Airport is 6 miles east-southeast of Manokotak, AK.
Latitude 58-55-55.4000N
Longitude 158-54-06.8000W
Elevation 106ft

PAMB Airport METARs

METAR PAMB 251756Z AUTO 35005KT 10SM CLR M03/M07 A2924 RMK AO2 SLP906 T10281067 11028 21039 50000 FZRANO $
Altimeter 29.24"
Temperature -2.8°C (27.0°F)
Wind 350° at 5KT
Clouds Skies are clear.
Visibility 10.0mi
Time observed: 2021-10-25T17:56:00Z

PAMB Airport Details

Status Operational
Activation August 1971
Ownership Public
Usage Public
Chart KODIAK
ATC on-site No
Beacon schedule N/A
Beacon color clear green

PAMB Airport Contacts

Owner ALASKA DOT&PF CENTRAL REGION
Owner address PO BOX 196900, ANCHORAGE, AK 99519-6900
Owner phone 907-269-0749
Manager SUPERVISOR OPERATIONS SUPPPORT
Manager address CONOCO PHILLIPS ALASKA INC., PO BOX 100360, ANCHORAGE, AK 99501-0360
Manager phone 907-659-7448

PAMB Airport (Manokotak) Radio Frequencies

PAMB (Airport) Radio Frequencies

UNICOM N/A
Common traffic advisory frequency (CTAF) 122.9